[[{"header":{"parameterUnit":"m.s-1","parameterCategory":1,"la1":30.2991,"la2":30.254,"lo1":-89.0895,"lo2":-89.0444,"dy":0.0017,"dx":0.0017,"nx":28,"ny":28,"refTime":"2023-09-02T09:00:00:Z","depth":0,"parameterNumber":2,"parameterNumberName":"U-component_of_WINDS"},"data":[0,0,0,0,0,0,0,0,0,0,0,0,0,0,0,0,0,0,0,0,0,0,0,0,0,0,0,0,0,0,0,0,0,0,0,0,0,0,0,0,0,0,0,0,0,0,0,0,0,0,0,0,0,0,0,0,0,0,0.0628,0.0628,0,0.0608,0.0608,0.0608,0.0519,0.0517,0.0515,0.0513,0.0495,0.0496,0.0498,0,0,0,0,0,0,0,0,0,0,0,0,0,0.0592,0.0593,0.0628,0.0628,0.0627,0.0608,0.0608,0.0608,0.0519,0.0517,0.0514,0.0512,0.0494,0.0496,0.0498,0,0,0,0,0,0,0,0,0,0,0,0,0,0.0593,0.0593,0.0628,0.0581,0.0576,0.0608,0.0608,0.0608,0.052,0.0517,0.0513,0.051,0.0494,0.0496,0.0498,0.0575,0,0,0.0505,0.0506,0,0,0,0,0,0,0,0,0.0593,0.0595,0.0588,0.0584,0.0579,0.0563,0.0588,0.0597,0.052,0.0541,0.0513,0.0509,0.052,0.052,0.0523,0.0574,0.0573,0.0505,0.0507,0.0507,0.0508,0,0,0,0,0,0,0,0.0593,0.0595,0.062,0.0588,0.0583,0.0562,0.0558,0.059,0.0549,0.0539,0.0533,0.0531,0.0517,0.0521,0.0522,0.0573,0.0505,0.0507,0.0508,0.0509,0.0686,0.0689,0,0,0,0,0,0,0.06,0.0596,0.0621,0.0619,0.0579,0.0565,0.0561,0.0571,0.0548,0.0541,0.0534,0.0527,0.0519,0.052,0.0521,0.061,0.0507,0.051,0.0511,0.0683,0.0687,0.069,0,0,0,0,0,0,0.0599,0.0603,0.0621,0.0606,0.0607,0.0569,0.0581,0.0572,0.0576,0.0544,0.0537,0.0546,0.0517,0.0518,0.0562,0.0608,0.0511,0.0513,0.0679,0.0684,0.0689,0.0788,0,0,0,0,0,0,0.0599,0.0603,0.0631,0.0607,0.0608,0.0662,0.0583,0.0574,0.058,0.0571,0.0553,0.0547,0.0514,0.0559,0.0564,0.0609,0.0514,0.0674,0.0681,0.0687,0.078,0.0796,0.0809,0,0,0,0,0,0.0598,0.066,0.0633,0.0636,0.0642,0.0665,0.0665,0.0626,0.0584,0.0613,0.0592,0.0548,0.0602,0.0564,0.0569,0.0616,0.0671,0.0679,0.0687,0.0774,0.0793,0.0809,0,0,0,0,0,0,0.0691,0.0656,0.0625,0.0682,0.0677,0.065,0.0684,0.0647,0.0654,0.0645,0.0596,0.0593,0.0645,0.0634,0.0593,0.0689,0.0629,0.0638,0.0694,0.0712,0.0726,0.0728,0.0516,0,0,0,0,0,0.0718,0.0739,0.0707,0.076,0.0759,0.0723,0.0731,0.0701,0.0694,0.0692,0.0674,0.0671,0.0687,0.0698,0.0711,0.0778,0.0774,0.0813,0.0827,0.0839,0.0848,0.0883,0.0901,0.0715,0.0715,0.0715,0,0,0.0775,0.0758,0.0774,0.0779,0.0771,0.0795,0.0722,0.0749,0.0767,0.0696,0.0737,0.0724,0.0716,0.0773,0.0796,0.0766,0.0898,0.0848,0.0858,0.086,0.0893,0.0911,0.0926,0.072,0.072,0.0719,0,0,0.089,0.0879,0.0922,0.0916,0.0906,0.0881,0.0892,0.087,0.0859,0.0898,0.0846,0.0867,0.0895,0.0892,0.0895,0.101,0.097,0.1015,0.109,0.1126,0.114,0.1153,0.1195,0.1211,0.1024,0.1024,0.1024,0,0.0962,0.0994,0.0949,0.0981,0.0985,0.0922,0.0966,0.0963,0.0958,0.0963,0.0928,0.0963,0.0953,0.1008,0.1036,0.104,0.1052,0.1017,0.1142,0.1154,0.1165,0.1205,0.1221,0.103,0.1029,0.1028,0.1028,0,0.1084,0.1108,0.1144,0.114,0.1148,0.1186,0.1148,0.1162,0.1131,0.1111,0.1153,0.1138,0.1148,0.1159,0.1129,0.121,0.1192,0.115,0.1089,0.1189,0.1226,0.1241,0.1038,0.1036,0.1034,0.1033,0,0,0.1258,0.1229,0.1243,0.1241,0.1225,0.1243,0.1279,0.1287,0.1301,0.1299,0.1329,0.1355,0.1317,0.1319,0.1289,0.132,0.1414,0.1274,0.1274,0.1302,0.1504,0.1536,0.1554,0.1386,0.1389,0.1391,0.1505,0,0.1369,0.1427,0.1388,0.1453,0.1475,0.1416,0.1447,0.1441,0.1423,0.144,0.1419,0.1439,0.1386,0.1388,0.1416,0.1396,0.1454,0.1387,0.1415,0.1416,0.142,0.1573,0.1607,0.1715,0.1519,0.1521,0.1523,0,0.1506,0.1511,0.1578,0.1558,0.1566,0.1595,0.16,0.1617,0.161,0.1594,0.1598,0.1559,0.1594,0.1533,0.1581,0.1537,0.1546,0.1538,0.1541,0.1543,0.1477,0.1581,0.1748,0.1765,0.1545,0.1543,0.1541,0,0.1628,0.1651,0.1694,0.1694,0.1672,0.1694,0.1686,0.1675,0.1683,0.1688,0.1693,0.1703,0.1708,0.1717,0.1683,0.1641,0.1736,0.1672,0.1725,0.1726,0.1749,0.1748,0.1921,0.1753,0.1752,0.1752,0.1752,0,0.1757,0.1801,0.1749,0.1776,0.1824,0.1779,0.1828,0.1813,0.1805,0.1829,0.1777,0.1801,0.1754,0.1773,0.1747,0.1791,0.1794,0.1783,0.1776,0.1789,0.179,0.1795,0.1787,0.1756,0.1755,0.1755,0.1754,0,0.1901,0.1868,0.1912,0.1887,0.1882,0.1919,0.1898,0.1923,0.1901,0.1932,0.1937,0.1903,0.1923,0.189,0.1906,0.1888,0.1951,0.1931,0.1953,0.1948,0.2004,0.1999,0.2187,0.221,0.2026,0.2027,0.2029,0,0.1986,0.2018,0.1997,0.2009,0.2004,0.2024,0.2032,0.1989,0.2,0.1995,0.2021,0.2036,0.2047,0.2082,0.206,0.2072,0.2053,0.2118,0.2055,0.2067,0.2056,0.2055,0.2059,0.2132,0.2134,0.2136,0.2137,0,0.2141,0.2123,0.2136,0.2144,0.2154,0.2159,0.2159,0.2172,0.2127,0.2142,0.2162,0.217,0.2186,0.2203,0.221,0.2203,0.2164,0.2157,0.217,0.2184,0.2196,0.2192,0.199,0.2153,0.2152,0.215,0.215,0.2149,0.2259,0.2285,0.2275,0.2291,0.2287,0.2289,0.2311,0.2292,0.2307,0.2317,0.2291,0.2318,0.231,0.2316,0.2313,0.2334,0.2305,0.2324,0.2329,0.2335,0.2344,0.2192,0.2335,0.2334,0.2334,0.2333,0.2333,0,0.2412,0.2402,0.2418,0.242,0.2433,0.2394,0.2392,0.2407,0.243,0.2427,0.2438,0.2461,0.2478,0.2457,0.2469,0.249,0.2473,0.2495,0.2494,0.2493,0.2368,0.2356,0.2509,0.2509,0.2509,0.2509,0.2509,0.2509,0.2493,0.2536,0.2517,0.2558,0.2548,0.2573,0.2576,0.2578,0.2575,0.2603,0.2616,0.2602,0.2592,0.2603,0.2617,0.2611,0.2618,0.2648,0.2635,0.2519,0.2502,0.2485,0.2474,0.265,0.265,0.2759,0.276,0.276]},{"header":{"parameterUnit":"m.s-1","parameterCategory":1,"la1":30.2991,"la2":30.254,"lo1":-89.0895,"lo2":-89.0444,"dy":0.0017,"dx":0.0017,"nx":28,"ny":28,"refTime":"2023-09-02T09:00:00:Z","depth":0,"parameterNumber":3,"parameterNumberName":"V-component_of_WINDS"},"data":[0,0,0,0,0,0,0,0,0,0,0,0,0,0,0,0,0,0,0,0,0,0,0,0,0,0,0,0,0,0,0,0,0,0,0,0,0,0,0,0,0,0,0,0,0,0,0,0,0,0,0,0,0,0,0,0,0,0,-1.0025,-1.0025,0,-1.0028,-1.0028,-1.0028,-1.0084,-1.0085,-1.0087,-1.0088,-1.0084,-1.0083,-1.0081,0,0,0,0,0,0,0,0,0,0,0,0,0,-1.0063,-1.0062,-1.0025,-1.0025,-1.0025,-1.0028,-1.0028,-1.0028,-1.0084,-1.0085,-1.0087,-1.0089,-1.0085,-1.0083,-1.0081,0,0,0,0,0,0,0,0,0,0,0,0,0,-1.0054,-1.0061,-1.0025,-1.0053,-1.0056,-1.0028,-1.0028,-1.0028,-1.0083,-1.0085,-1.0088,-1.009,-1.0085,-1.0083,-1.0081,-1.0024,0,0,-1.0074,-1.0073,0,0,0,0,0,0,0,0,-1.0054,-1.0052,-1.0049,-1.0052,-1.0054,-1.0058,-1.004,-1.0026,-1.0083,-1.0073,-1.0088,-1.0091,-1.0073,-1.0072,-1.0068,-1.0024,-1.0024,-1.0074,-1.0073,-1.0072,-1.0071,0,0,0,0,0,0,0,-1.0055,-1.0052,-1.0026,-1.0049,-1.0052,-1.0064,-1.0065,-1.0038,-1.006,-1.0074,-1.0078,-1.0078,-1.0075,-1.007,-1.0068,-1.0024,-1.0074,-1.0072,-1.0071,-1.007,-0.9933,-0.9931,0,0,0,0,0,0,-1.0052,-1.0053,-1.0026,-1.0026,-1.006,-1.0062,-1.0063,-1.0054,-1.0061,-1.0064,-1.0076,-1.008,-1.0072,-1.0071,-1.0068,-1.0002,-1.0072,-1.007,-1.0069,-0.9935,-0.9932,-0.993,0,0,0,0,0,0,-1.0053,-1.0049,-1.0026,-1.0041,-1.0039,-1.0059,-1.0049,-1.0053,-1.0048,-1.0063,-1.0067,-1.0067,-1.0074,-1.0071,-1.0035,-1.0002,-1.0069,-1.0067,-0.9938,-0.9934,-0.9931,-0.9868,0,0,0,0,0,0,-1.0054,-1.0049,-1.0029,-1.004,-1.0038,-0.9994,-1.0047,-1.0052,-1.0045,-1.0051,-1.0055,-1.0058,-1.0076,-1.0038,-1.0033,-1.0,-1.0065,-0.9941,-0.9936,-0.9932,-0.9873,-0.9863,-0.9854,0,0,0,0,0,-1.0055,-1.001,-1.0028,-1.0024,-1.0013,-0.9992,-0.9991,-1.0014,-1.0042,-1.0021,-1.0031,-1.0058,-1.0007,-1.0034,-1.0029,-0.9995,-0.9943,-0.9938,-0.9933,-0.9877,-0.9865,-0.9854,0,0,0,0,0,0,-0.9992,-1.0011,-1.0032,-0.9989,-0.9989,-1.0002,-0.9976,-1.0,-0.999,-0.9996,-1.0023,-1.0023,-0.9983,-0.9985,-1.0015,-0.994,-0.998,-0.9973,-0.994,-0.9928,-0.9919,-0.9918,-1.0063,0,0,0,0,0,-0.9973,-0.9957,-0.9974,-0.9935,-0.9934,-0.9955,-0.9947,-0.9965,-0.9965,-0.9964,-0.9971,-0.9968,-0.9952,-0.994,-0.9926,-0.9875,-0.9875,-0.9849,-0.9839,-0.9831,-0.9825,-0.9797,-0.9785,-0.9913,-0.9913,-0.9913,0,0,-0.9934,-0.9943,-0.993,-0.9922,-0.9924,-0.9905,-0.9954,-0.9931,-0.9917,-0.996,-0.9927,-0.9932,-0.9931,-0.9886,-0.9867,-0.9887,-0.979,-0.9825,-0.9818,-0.9816,-0.979,-0.9778,-0.9767,-0.9909,-0.991,-0.991,0,0,-0.9853,-0.9858,-0.9826,-0.9828,-0.9831,-0.9846,-0.9838,-0.9848,-0.9853,-0.9821,-0.9853,-0.9835,-0.9807,-0.9805,-0.9799,-0.9719,-0.9743,-0.9713,-0.9662,-0.9635,-0.9625,-0.9616,-0.9587,-0.9576,-0.9707,-0.9707,-0.9707,0,-0.9803,-0.9777,-0.9806,-0.9781,-0.9776,-0.9818,-0.9785,-0.9784,-0.9781,-0.9776,-0.98,-0.9765,-0.9767,-0.9723,-0.9704,-0.9698,-0.9689,-0.9712,-0.9625,-0.9616,-0.9608,-0.958,-0.9569,-0.9703,-0.9704,-0.9704,-0.9704,0,-0.9715,-0.9696,-0.9669,-0.9669,-0.9661,-0.9632,-0.9655,-0.9643,-0.9663,-0.9674,-0.964,-0.9645,-0.9632,-0.9623,-0.9641,-0.9581,-0.9594,-0.962,-0.9661,-0.9592,-0.9566,-0.9555,-0.9698,-0.9699,-0.97,-0.9701,0,0,-0.9591,-0.9609,-0.9598,-0.9599,-0.9606,-0.9591,-0.9564,-0.9554,-0.9543,-0.954,-0.9517,-0.9492,-0.9518,-0.9512,-0.953,-0.9506,-0.9441,-0.9536,-0.9537,-0.9517,-0.9375,-0.9353,-0.934,-0.9458,-0.9456,-0.9455,-0.9374,0,-0.9512,-0.9468,-0.9494,-0.9446,-0.9428,-0.9468,-0.9444,-0.9445,-0.9455,-0.9441,-0.9452,-0.9434,-0.9469,-0.9466,-0.9444,-0.9454,-0.9413,-0.946,-0.9434,-0.9433,-0.9432,-0.9327,-0.9304,-0.9228,-0.9364,-0.9363,-0.9362,0,-0.9413,-0.9408,-0.9359,-0.937,-0.9364,-0.9342,-0.9335,-0.9322,-0.9323,-0.9332,-0.9327,-0.9351,-0.9323,-0.9365,-0.9326,-0.9358,-0.9349,-0.9352,-0.935,-0.9346,-0.9392,-0.932,-0.9205,-0.9192,-0.9346,-0.9347,-0.9348,0,-0.9327,-0.9308,-0.9276,-0.9275,-0.9288,-0.9272,-0.9276,-0.928,-0.9273,-0.9266,-0.9261,-0.9251,-0.9244,-0.9235,-0.9255,-0.9284,-0.9213,-0.9256,-0.9218,-0.9217,-0.92,-0.92,-0.908,-0.9197,-0.9197,-0.9197,-0.9197,0,-0.9234,-0.9202,-0.9238,-0.9217,-0.9182,-0.9212,-0.9176,-0.9184,-0.9188,-0.9169,-0.9203,-0.9184,-0.9212,-0.9195,-0.9211,-0.9176,-0.9173,-0.9178,-0.9182,-0.9174,-0.9173,-0.9167,-0.9172,-0.9194,-0.9195,-0.9195,-0.9196,0,-0.9131,-0.9154,-0.9121,-0.9137,-0.914,-0.9113,-0.9126,-0.9107,-0.9121,-0.9097,-0.9093,-0.9113,-0.9095,-0.9115,-0.9098,-0.9109,-0.9061,-0.9074,-0.9061,-0.9064,-0.9024,-0.9027,-0.8895,-0.8878,-0.9007,-0.9006,-0.9005,0,-0.9069,-0.9046,-0.906,-0.9051,-0.9054,-0.9039,-0.9032,-0.9061,-0.9052,-0.9053,-0.9034,-0.902,-0.901,-0.8979,-0.8991,-0.8978,-0.899,-0.8945,-0.8988,-0.8981,-0.8988,-0.8988,-0.8985,-0.8935,-0.8933,-0.8932,-0.8931,0,-0.8958,-0.8971,-0.8961,-0.8955,-0.8947,-0.8943,-0.8941,-0.8931,-0.8961,-0.895,-0.8934,-0.8926,-0.891,-0.8895,-0.8886,-0.8889,-0.8914,-0.8918,-0.8908,-0.8899,-0.8892,-0.8894,-0.9035,-0.892,-0.8921,-0.8922,-0.8923,-0.8923,-0.8872,-0.8853,-0.8861,-0.8849,-0.8851,-0.8849,-0.8833,-0.8846,-0.8833,-0.8824,-0.8842,-0.8821,-0.8823,-0.8814,-0.8814,-0.8797,-0.8816,-0.8802,-0.8798,-0.8794,-0.8787,-0.8896,-0.8795,-0.8796,-0.8796,-0.8796,-0.8797,0,-0.8761,-0.8769,-0.8758,-0.8756,-0.8746,-0.8774,-0.8774,-0.8763,-0.8745,-0.8747,-0.8737,-0.8718,-0.8704,-0.8716,-0.8704,-0.8688,-0.8699,-0.8683,-0.8684,-0.8684,-0.8772,-0.8781,-0.8675,-0.8675,-0.8675,-0.8675,-0.8675,-0.8675,-0.8702,-0.8672,-0.8685,-0.8656,-0.8663,-0.8645,-0.8642,-0.864,-0.8642,-0.862,-0.8609,-0.8618,-0.8623,-0.8612,-0.86,-0.8604,-0.8597,-0.8577,-0.8584,-0.8666,-0.8678,-0.8689,-0.8698,-0.8576,-0.8575,-0.8498,-0.8497,-0.8497]}]]